Tracking 19562 objects as of 24-Mar-2019
HD Live streaming from Space Station
objects crossing your sky now

ASC 1

Track ASC 1 now!
ASC 1 is classified as:


NORAD ID: 15994
Int'l Code: 1985-076C
Perigee: 35,745.5 km
Apogee: 35,841.1 km
Inclination: 15.2 °
Period: 1,436.1 minutes
Semi major axis: 42164 km
RCS: 4.4543 m2 (large)
Launch date: August 27, 1985
Source: United States (US)
Launch site: AIR FORCE EASTERN TEST RANGE (AFETR)
aabbcc
Your satellite tracking list
Your tracking list is empty




NASA's NSSDC Master Catalog

Two Line Element Set (TLE):
1 15994U 85076C   19082.26063447 -.00000259 +00000-0 +00000-0 0  9993
2 15994 015.1606 005.4218 0011346 347.5965 199.3941 01.00273373091500
Source of the keplerian elements: AFSPC